Location: Ciry-Salsogne
(49.3630°N, 3.4621°E)
Time: 02:10:53
(UTC+00:00)

Daily predictions for brighter satellites

Satellite Brightness Start Highest point End
(mag) Time Altitude Azimuth Time Altitude Azimuth Time Altitude Azimuth
Cosmos 2344 4.4 02:45:54 64° ENE 02:45:54 64° ENE 02:57:31 10° ESE
ATLAS 2AS CENTAUR R/B 4.1 02:52:20 39° NE 02:52:20 39° NE 02:56:57 10° NE
Lacrosse 5 4.2 03:33:29 20° NE 03:33:29 20° NE 03:34:59 10° NE
ATLAS 3B R/B 4.1 03:36:30 27° SSE 03:36:30 27° SSE 03:39:32 10° SSE
CZ-4C R/B 3.5 03:47:08 36° NE 03:47:08 36° NE 03:50:46 10° NE
BREEZE-M DEB (TANK) 4.5 03:53:02 68° SW 03:54:31 84° SSE 04:28:17 10° E
COSMO-SKYMED 1 4.5 03:56:45 10° ESE 04:00:08 28° ENE 04:00:08 28° ENE
Cosmos 1844 Rocket 3.5 04:02:42 46° NE 04:02:42 46° NE 04:06:41 10° NNE
COSMOS 2406 4.2 04:02:25 38° NNE 04:03:26 41° NE 04:08:52 10° ESE
USA 305 4.5 04:16:56 33° ESE 04:16:56 33° ESE 04:19:24 10° ESE
ATLAS 5 CENTAUR R/B 3.2 04:17:17 28° SE 04:17:35 29° ESE 04:21:25 10° ENE
NOSS 3-4 (A) 4.3 04:22:14 37° N 04:22:14 37° N 04:27:12 10° NE
NOSS 3-4 (C) 4.3 04:22:20 37° N 04:22:20 37° N 04:27:18 10° NE
Nadezhda 3 Rocket 4.4 04:15:11 10° N 04:21:25 60° ENE 04:27:31 10° SSE
USA 306 4.1 04:25:27 40° ESE 04:25:27 40° ESE 04:28:15 10° ESE
Cosmos 2263 Rocket 4.1 04:33:14 17° N 04:33:14 17° N 04:34:57 10° N
Uosat 12 SS-18 rocket 4.4 04:32:43 85° ENE 04:32:43 85° ENE 04:38:30 10° SE
ADEOS 3.7 04:27:55 10° NNE 04:33:10 72° ESE 04:38:22 10° S
BREEZE-M DEB (TANK) 4.4 04:34:15 28° ESE 04:34:15 28° ESE 04:36:32 10° E
FENGYUN 3A 3.6 04:28:12 10° NNE 04:33:39 86° ESE 04:36:30 29° SSW
Meteor 1-27 Rocket 4.3 04:29:03 13° N 04:34:11 58° ENE 04:40:00 10° SSE
Cosmos 1844 3.6 04:37:52 71° NNW 04:37:52 71° NNW 04:43:10 10° NNE
ATLAS 2AS CENTAUR R/B 3.3 04:39:47 45° NW 04:40:40 46° NNW 04:48:04 10° NE
Meteor 1-10 Rocket 4.0 04:41:22 55° NNW 04:42:40 81° W 04:48:20 10° S
SKYMED 2 3.6 04:44:01 10° SSE 04:48:20 78° ENE 04:48:46 70° NNE
METEOR-M 4.0 04:43:07 10° NNE 04:48:31 90° N 04:53:52 10° SSW
Cosmos 1707 Rocket 4.4 04:47:28 21° N 04:50:04 49° ENE 04:54:16 10° SSE
SJ-12 4.4 04:46:12 10° NNE 04:50:15 60° E 04:54:15 10° S
Cosmos 372 Rocket 3.8 04:49:28 35° SSW 04:51:41 89° ESE 04:56:51 10° NNE
COSMOS 2455 2.7 04:49:17 36° SW 04:51:53 86° NW 04:57:58 10° NE
Cosmos 2154 Rocket 3.9 04:49:19 10° S 04:55:35 88° E 05:01:56 10° N
Cosmos 2298 Rocket 4.5 04:50:37 10° S 04:55:49 61° ESE 05:01:04 10° NNE
PSLV R/B 4.1 04:54:29 10° SSE 04:58:33 71° ENE 04:59:50 42° N
ALOS 3.3 04:54:16 10° N 04:56:57 32° N 04:56:57 32° N
Cosmos 1833 Rocket 2.7 04:57:52 32° NNW 05:00:36 80° ENE 05:06:13 10° SSE
Sich 1 3.4 04:56:38 10° S 05:01:01 64° E 05:05:25 10° NNE
Cosmos 1295 Rocket 4.4 04:56:11 10° S 05:02:16 83° E 05:08:25 10° N
Cosmos 2327 Rocket 4.3 04:58:23 10° SSW 05:04:28 79° W 05:10:36 10° N
Cosmos 2082 Rocket 2.8 05:01:52 19° NNW 05:05:51 54° NE 05:11:26 10° SE
FALCON 9 DEB 4.2 05:07:03 35° NE 05:07:03 35° NE 05:09:24 10° ENE
SL-4 R/B 2.2 05:06:43 53° SSW 05:06:43 53° SSW 05:10:07 10° SE
Cosmos 2074 Rocket 4.0 05:01:06 10° SSW 05:07:08 52° WNW 05:13:13 10° N
EXPRESS MD2 3.9 05:07:42 44° SW 05:08:00 45° SSW 05:13:49 10° SE
USA 290 3.7 05:07:38 29° NNE 05:08:28 34° ENE 05:11:28 10° SE
Cosmos 2228 Rocket 4.3 05:11:09 27° SSW 05:11:09 27° SSW 05:13:24 10° SSW
Cosmos 1437 Rocket 4.0 05:12:49 26° SSW 05:12:49 26° SSW 05:14:41 10° S
Lacrosse 5 2.7 05:12:41 33° NNW 05:13:34 36° N 05:18:14 10° ENE
EO 1 Delta rocket 3.7 05:13:33 10° S 05:18:13 80° W 05:22:58 10° NNW
ERBS 3.6 05:21:36 28° N 05:21:55 29° NNE 05:24:52 10° E
ATLAS 3B R/B 4.4 05:23:49 15° SW 05:23:49 15° SW 05:26:12 10° SW
Cosmos 2341 Rocket 4.1 05:16:05 10° S 05:22:16 78° E 05:28:33 10° NNE
USA 307 3.3 05:22:34 41° WSW 05:23:17 45° SW 05:27:23 10° SE
Meteor 2-12 Rocket 4.4 05:18:50 10° S 05:25:00 89° E 05:31:13 10° N
Meteor PRIRODA 3.5 05:22:04 10° NNE 05:25:48 81° WNW 05:29:32 10° SSW
CZ-4B R/B 2.9 05:23:29 10° N 05:27:57 73° WNW 05:32:12 10° SSW
USA 308 3.5 05:28:59 36° WSW 05:29:55 41° SW 05:33:57 10° SSE
Cosmos 2184 Rocket 4.5 05:27:06 10° SW 05:32:57 37° WNW 05:38:51 10° N
CZ-4C R/B 3.2 05:32:20 26° NW 05:34:00 31° NNW 05:39:45 10° NE
Cosmos 2278 Rocket 2.2 05:29:28 10° SSW 05:35:08 83° ESE 05:40:51 10° NNE
FALCON 9 DEB 3.5 05:35:47 40° NNW 05:36:19 45° N 05:39:26 10° E
COSMO-SKYMED 1 3.1 05:32:32 10° SSW 05:36:31 35° W 05:37:21 32° WNW
Okean O Rocket 3.8 05:33:30 10° NE 05:37:24 29° E 05:41:17 10° SSE
Cosmos 1862 Rocket 3.7 05:33:00 10° N 05:37:29 77° E 05:41:52 10° SSE
Envisat 3.6 05:33:22 10° NNE 05:38:25 61° E 05:43:26 10° S
deb Chang Zheng 4 4.0 05:36:50 10° N 05:40:52 38° WNW 05:44:54 10° SW
Cosmos 1805 Rocket 3.9 05:36:53 10° SW 05:41:05 40° WNW 05:45:20 10° N
Cosmos 494 Rocket 4.0 05:39:47 19° NW 05:43:21 58° WSW 05:48:22 10° S
YAOGAN 6 3.0 05:40:15 10° NNE 05:43:43 62° E 05:47:10 10° S
Cosmos 1515 4.4 05:40:47 10° N 05:44:31 54° ENE 05:48:15 10° SSE
Cosmos 1844 Rocket 3.7 05:44:24 24° WNW 05:45:31 25° NW 05:50:10 10° NNE
SMAP 4.4 05:42:28 10° NNE 05:46:54 42° E 05:51:19 10° S
COSMOS 2406 3.7 05:44:31 22° NW 05:47:46 41° WSW 05:53:06 10° S
Cosmos 1666 Rocket 3.4 05:44:55 10° SSW 05:49:13 65° WNW 05:53:35 10° N
BREEZE-M (TANK) 4.1 05:46:00 10° SW 05:52:25 35° SSE 05:54:57 10° E
Cosmos 1689 Rocket 4.1 05:50:56 10° SSW 05:51:47 15° SW 05:51:47 15° SW
USA 305 4.1 05:53:05 21° W 05:54:47 28° SW 05:58:26 10° SSE
Cosmos 1242 Rocket 2.6 05:55:26 13° NNW 05:58:35 57° W 06:02:10 10° S
H-2A R/B 2.5 05:55:39 10° NNE 05:59:30 74° ESE 06:03:20 10° S
Cosmos 1271 Rocket 4.0 05:56:04 10° N 05:59:45 42° ENE 06:03:27 10° SE
ATLAS 5 CENTAUR R/B 1.9 05:58:53 16° WSW 06:01:58 44° NW 06:06:33 10° NE
USA 306 4.3 06:01:36 18° W 06:03:34 24° SW 06:07:03 10° S
MOS 1 Rocket 3.8 06:00:12 10° S 06:05:03 47° W 06:10:12 10° NNW
CZ-2C R/B 2.8 06:01:13 10° SSE 06:06:37 78° ENE 06:11:55 10° NNW
USA 229 DEB 4.0 06:01:24 12° NW 06:08:12 83° NE 06:15:54 10° SE
USA 229 4.0 06:01:30 12° NW 06:08:18 83° NE 06:16:00 10° SE
Cosmos 2366 rocket 4.0 06:02:02 10° SSW 06:08:20 80° W 06:14:37 10° N
Cosmos 1633 Rocket 3.2 06:04:56 10° SSW 06:09:13 50° WNW 06:13:32 10° N
Okean 1-7 3.7 06:05:49 10° N 06:10:03 56° ENE 06:14:14 10° SSE
USA 81 4.2 06:06:06 10° SSW 06:11:12 50° WNW 06:16:20 10° N
FALCON 9 DEB 3.2 06:10:17 20° WNW 06:12:18 59° NNE 06:15:30 10° E
H-2A R/B 3.2 06:09:58 10° N 06:13:35 37° WNW 06:17:08 10° SW
Cosmos 2218 Rocket 3.9 06:07:53 10° SSW 06:14:04 70° W 06:20:16 10° N
Cosmos 1125 Rocket 3.7 06:09:45 10° SW 06:14:47 49° WNW 06:19:51 10° NNE
Meteor 1-20 Rocket 4.3 06:10:44 10° SSW 06:16:25 64° WNW 06:22:15 10° N
NOSS 3-1 (C) 4.1 06:10:01 11° NW 06:17:08 77° SW 06:25:44 10° SSE
GENESIS II 4.4 06:13:14 10° SW 06:17:15 79° SE 06:21:18 10° NE
FALCON 9 DEB 3.1 06:15:49 18° WNW 06:18:04 61° NNE 06:21:15 10° E
Cosmos 1269 Rocket 4.1 06:14:15 10° NNW 06:19:26 57° WSW 06:24:35 10° S
Iridium 2 4.0 06:17:50 10° N 06:21:36 68° E 06:25:19 10° SSE
PSLV R/B 4.1 06:18:03 10° N 06:21:39 40° WNW 06:25:09 10° SW
NOSS 3-1 (A) 4.2 06:15:03 10° NW 06:22:26 84° NE 06:31:03 10° SE
NOSS 2-1 (E) 3.2 06:25:56 10° SW 06:29:15 73° SE 06:32:51 10° NE
AQUARIUS 4.1 06:27:59 10° NNE 06:32:30 82° WNW 06:37:00 10° SSW
ATLAS 2AS CENTAUR R/B 4.0 06:27:15 11° WNW 06:33:35 28° N 06:39:55 10° NE
CZ-4B DEB 4.3 06:29:27 10° N 06:34:47 55° WNW 06:40:07 10° SW
Cosmos 2242 Rocket 3.6 06:30:31 10° NNW 06:34:54 63° W 06:39:14 10° S
COSMOS 2455 3.9 06:33:40 10° W 06:38:40 26° NNW 06:43:42 10° NNE
Cosmos 1939 Rocket 3.6 06:36:49 10° NNE 06:40:54 61° E 06:45:00 10° S
Okean 1 4.2 06:38:42 10° NNW 06:42:18 31° W 06:45:53 10° SSW
USA 290 4.0 06:40:30 10° WNW 06:42:37 16° WSW 06:44:43 10° SW
FALCON 9 DEB 3.0 06:39:24 10° WNW 06:42:37 80° NNE 06:45:52 10° ESE
Cosmos 1833 Rocket 4.1 06:40:04 10° WNW 06:43:50 19° W 06:47:35 10° SW
SL-4 R/B 4.1 06:43:46 10° WSW 06:45:17 12° SW 06:46:47 10° SSW
MOS 1-B 4.5 06:39:39 10° N 06:45:18 54° WNW 06:50:56 10° SW
Cosmos 1703 Rocket 3.6 06:42:47 10° NNW 06:47:03 57° W 06:51:18 10° S
NOAA 11 4.3 06:42:38 10° NNE 06:48:10 89° WNW 06:53:41 10° SSW
Cosmos 2082 Rocket 3.2 06:44:47 10° NW 06:49:39 30° WSW 06:54:31 10° SSW
